DLH252 LFPG-EDDF

Flight info

Callsign DLH252
Flight time 0h 53m
Altitude 23000
Route RANUX DCT VALEK DCT LIPNI UN858 LIMGO Z111 RAMOB IMCOM1D
Aircraft A20N/M-SDE2E3FGHIRWXY/LB1

Departure

Time 2026-05-08 19:29
Airport Charles de Gaulle International Airport (LFPG)

Arrival

Time 2026-05-08 20:23
Airport Frankfurt Main Airport (EDDF)
Time Latitude Longitude Altitude Speed Heading
2026-05-08 19:04 49.00549 2.56531 353 ft 0 kts 179°
2026-05-08 19:13 49.00559 2.56530 361 ft 2 kts 180°
2026-05-08 19:13 49.00572 2.56531 357 ft 2 kts 182°
2026-05-08 19:14 49.00587 2.56533 359 ft 2 kts 188°
2026-05-08 19:14 49.00603 2.56538 356 ft 2 kts 209°
2026-05-08 19:14 49.00614 2.56556 358 ft 2 kts 259°
2026-05-08 19:14 49.00615 2.56566 357 ft 0 kts 263°
2026-05-08 19:16 49.00614 2.56557 358 ft 4 kts 263°
2026-05-08 19:16 49.00612 2.56509 356 ft 3 kts 266°
2026-05-08 19:17 49.00608 2.56436 353 ft 10 kts 266°
2026-05-08 19:17 49.00605 2.56380 353 ft 3 kts 266°
2026-05-08 19:17 49.00602 2.56312 353 ft 10 kts 265°
2026-05-08 19:17 49.00594 2.56177 357 ft 15 kts 265°
2026-05-08 19:18 49.00582 2.56067 357 ft 12 kts 251°
2026-05-08 19:18 49.00567 2.55950 359 ft 10 kts 279°
2026-05-08 19:18 49.00569 2.55859 355 ft 10 kts 266°
2026-05-08 19:18 49.00563 2.55742 362 ft 12 kts 265°
2026-05-08 19:19 49.00559 2.55671 356 ft 0 kts 264°
2026-05-08 19:20 49.00553 2.55565 356 ft 12 kts 265°
2026-05-08 19:20 49.00563 2.55440 353 ft 13 kts 309°
2026-05-08 19:21 49.00650 2.55383 362 ft 16 kts 343°
2026-05-08 19:21 49.00767 2.55333 359 ft 16 kts 344°
2026-05-08 19:21 49.00856 2.55294 355 ft 0 kts 343°
2026-05-08 19:21 49.00881 2.55283 362 ft 7 kts 343°
2026-05-08 19:22 49.00949 2.55252 360 ft 13 kts 343°
2026-05-08 19:22 49.01054 2.55207 362 ft 18 kts 343°
2026-05-08 19:22 49.01178 2.55160 357 ft 18 kts 356°
2026-05-08 19:22 49.01306 2.55214 358 ft 21 kts
2026-05-08 19:23 49.01430 2.55182 361 ft 17 kts 349°
2026-05-08 19:23 49.01553 2.55158 360 ft 19 kts 356°
2026-05-08 19:23 49.01667 2.55146 357 ft 18 kts 356°
2026-05-08 19:23 49.01770 2.55135 358 ft 14 kts 356°
2026-05-08 19:24 49.01857 2.55080 361 ft 16 kts 289°
2026-05-08 19:24 49.01851 2.54887 355 ft 21 kts 265°
2026-05-08 19:24 49.01839 2.54665 354 ft 24 kts 265°
2026-05-08 19:24 49.01824 2.54400 354 ft 25 kts 265°
2026-05-08 19:25 49.01813 2.54197 360 ft 18 kts 265°
2026-05-08 19:25 49.01801 2.53978 362 ft 23 kts 264°
2026-05-08 19:25 49.01786 2.53718 362 ft 27 kts 264°
2026-05-08 19:25 49.01771 2.53439 354 ft 25 kts 265°
2026-05-08 19:26 49.01757 2.53173 360 ft 19 kts 266°
2026-05-08 19:26 49.01745 2.52950 358 ft 22 kts 265°
2026-05-08 19:26 49.01733 2.52713 354 ft 24 kts 265°
2026-05-08 19:26 49.01719 2.52458 356 ft 24 kts 265°
2026-05-08 19:27 49.01709 2.52259 354 ft 16 kts 264°
2026-05-08 19:27 49.01708 2.52240 354 ft 0 kts 265°
2026-05-08 19:27 49.01707 2.52222 354 ft 5 kts 266°
2026-05-08 19:27 49.01731 2.52151 354 ft 10 kts 329°
2026-05-08 19:28 49.01781 2.52137 354 ft 13 kts 353°
2026-05-08 19:28 49.01887 2.52125 354 ft 18 kts 355°
2026-05-08 19:28 49.02014 2.52110 356 ft 18 kts 357°
2026-05-08 19:28 49.02114 2.52254 357 ft 19 kts 83°
2026-05-08 19:29 49.02127 2.52479 356 ft 57 kts 85°
2026-05-08 19:29 49.02209 2.53995 433 ft 145 kts 84°
2026-05-08 19:29 49.02251 2.55023 883 ft 148 kts 85°
2026-05-08 19:29 49.02329 2.57205 1930 ft 159 kts 85°
2026-05-08 19:30 49.02380 2.58335 2450 ft 163 kts 85°
2026-05-08 19:30 49.02474 2.60094 3246 ft 171 kts 84°
2026-05-08 19:30 49.02615 2.61958 4076 ft 183 kts 83°
2026-05-08 19:30 49.02784 2.63952 4932 ft 198 kts 84°
2026-05-08 19:31 49.02914 2.66184 5693 ft 226 kts 87°
2026-05-08 19:31 49.03020 2.68698 6638 ft 252 kts 88°
2026-05-08 19:31 49.03141 2.71511 7565 ft 276 kts 87°
2026-05-08 19:31 49.03279 2.74489 8828 ft 285 kts 86°
2026-05-08 19:32 49.03422 2.77509 10133 ft 295 kts 86°
2026-05-08 19:32 49.03576 2.80728 11049 ft 317 kts 86°
2026-05-08 19:32 49.03743 2.84211 11768 ft 342 kts 86°
2026-05-08 19:32 49.03921 2.87905 12709 ft 355 kts 86°
2026-05-08 19:33 49.04102 2.91677 13931 ft 361 kts 86°
2026-05-08 19:33 49.04303 2.95519 15014 ft 366 kts 85°
2026-05-08 19:33 49.04625 2.99395 16117 ft 371 kts 78°
2026-05-08 19:33 49.05265 3.03230 17179 ft 376 kts 74°
2026-05-08 19:34 49.05978 3.07044 18250 ft 382 kts 73°
2026-05-08 19:34 49.06729 3.11009 19177 ft 387 kts 73°
2026-05-08 19:34 49.07460 3.14932 20067 ft 392 kts 73°
2026-05-08 19:34 49.08199 3.18975 20935 ft 399 kts 72°
2026-05-08 19:35 49.08938 3.23081 21816 ft 405 kts 72°
2026-05-08 19:35 49.09683 3.27245 22622 ft 411 kts 71°
2026-05-08 19:35 49.10438 3.31482 22974 ft 414 kts 71°
2026-05-08 19:35 49.11192 3.35719 23062 ft 414 kts 71°
2026-05-08 19:36 49.11945 3.39959 23063 ft 414 kts 71°
2026-05-08 19:36 49.12694 3.44184 23069 ft 414 kts 71°
2026-05-08 19:36 49.13446 3.48434 23067 ft 413 kts 71°
2026-05-08 19:36 49.14183 3.52610 23067 ft 413 kts 71°
2026-05-08 19:37 49.14928 3.56845 23069 ft 412 kts 72°
2026-05-08 19:37 49.15669 3.61064 23068 ft 412 kts 72°
2026-05-08 19:37 49.16409 3.65286 23069 ft 411 kts 72°
2026-05-08 19:37 49.17147 3.69503 23063 ft 410 kts 72°
2026-05-08 19:38 49.17882 3.73714 23061 ft 410 kts 72°
2026-05-08 19:38 49.18616 3.77925 23059 ft 410 kts 72°
2026-05-08 19:38 49.19347 3.82129 23056 ft 409 kts 72°
2026-05-08 19:38 49.20077 3.86341 23056 ft 409 kts 72°
2026-05-08 19:39 49.20798 3.90507 23056 ft 408 kts 72°
2026-05-08 19:39 49.21518 3.94679 23052 ft 408 kts 72°
2026-05-08 19:39 49.22239 3.98872 23051 ft 407 kts 73°
2026-05-08 19:39 49.22959 4.03061 23047 ft 407 kts 73°
2026-05-08 19:40 49.23676 4.07248 23046 ft 407 kts 73°
2026-05-08 19:40 49.24389 4.11420 23046 ft 406 kts 73°
2026-05-08 19:40 49.25103 4.15614 23052 ft 406 kts 73°
2026-05-08 19:40 49.25815 4.19802 23043 ft 406 kts 73°
2026-05-08 19:41 49.26523 4.23977 23050 ft 406 kts 73°
2026-05-08 19:41 49.27230 4.28156 23052 ft 406 kts 73°
2026-05-08 19:41 49.27936 4.32342 23050 ft 405 kts 74°
2026-05-08 19:41 49.28630 4.36463 23056 ft 405 kts 74°
2026-05-08 19:42 49.29330 4.40636 23053 ft 405 kts 74°
2026-05-08 19:42 49.30029 4.44810 23054 ft 405 kts 74°
2026-05-08 19:42 49.30727 4.48989 23070 ft 404 kts 74°
2026-05-08 19:42 49.31422 4.53160 23069 ft 404 kts 74°
2026-05-08 19:43 49.32117 4.57338 23067 ft 404 kts 75°
2026-05-08 19:43 49.32809 4.61516 23068 ft 404 kts 75°
2026-05-08 19:43 49.33500 4.65692 23073 ft 405 kts 75°
2026-05-08 19:43 49.34189 4.69871 23075 ft 404 kts 75°
2026-05-08 19:44 49.34878 4.74055 23075 ft 404 kts 75°
2026-05-08 19:44 49.35565 4.78241 23082 ft 405 kts 75°
2026-05-08 19:44 49.36250 4.82429 23070 ft 405 kts 75°
2026-05-08 19:44 49.36926 4.86567 23074 ft 405 kts 75°
2026-05-08 19:45 49.37609 4.90758 23077 ft 405 kts 75°
2026-05-08 19:45 49.38292 4.94961 23074 ft 406 kts 75°
2026-05-08 19:45 49.38972 4.99161 23074 ft 406 kts 75°
2026-05-08 19:45 49.39652 5.03362 23077 ft 406 kts 75°
2026-05-08 19:46 49.40330 5.07569 23079 ft 406 kts 75°
2026-05-08 19:46 49.41009 5.11787 23084 ft 406 kts 76°
2026-05-08 19:46 49.42361 5.20223 23082 ft 407 kts 76°
2026-05-08 19:47 49.43035 5.24440 23079 ft 407 kts 76°
2026-05-08 19:47 49.43698 5.28608 23081 ft 408 kts 76°
2026-05-08 19:47 49.44370 5.32839 23077 ft 408 kts 76°
2026-05-08 19:47 49.45124 5.37028 23078 ft 407 kts 68°
2026-05-08 19:48 49.46260 5.41027 23079 ft 408 kts 64°
2026-05-08 19:48 49.47482 5.44967 23081 ft 408 kts 64°
2026-05-08 19:48 49.48705 5.48891 23081 ft 408 kts 64°
2026-05-08 19:48 49.49915 5.52837 23082 ft 408 kts 64°
2026-05-08 19:49 49.51109 5.56796 23081 ft 408 kts 65°
2026-05-08 19:49 49.52292 5.60766 23081 ft 408 kts 65°
2026-05-08 19:49 49.53469 5.64739 23087 ft 408 kts 65°
2026-05-08 19:49 49.54628 5.68665 23088 ft 408 kts 65°
2026-05-08 19:50 49.55801 5.72645 23083 ft 408 kts 65°
2026-05-08 19:50 49.56974 5.76633 23091 ft 409 kts 65°
2026-05-08 19:50 49.58142 5.80612 23090 ft 409 kts 65°
2026-05-08 19:50 49.59307 5.84584 23093 ft 401 kts 65°
2026-05-08 19:51 49.60438 5.88446 23093 ft 393 kts 65°
2026-05-08 19:51 49.61565 5.92306 23094 ft 396 kts 65°
2026-05-08 19:51 49.62696 5.96180 23098 ft 395 kts 65°
2026-05-08 19:51 49.63824 6.00051 23097 ft 396 kts 65°
2026-05-08 19:52 49.64935 6.03871 23105 ft 396 kts 65°
2026-05-08 19:52 49.66062 6.07749 23104 ft 396 kts 65°
2026-05-08 19:52 49.67186 6.11628 23103 ft 396 kts 65°
2026-05-08 19:52 49.68309 6.15504 23101 ft 396 kts 65°
2026-05-08 19:53 49.69432 6.19390 23100 ft 396 kts 65°
2026-05-08 19:53 49.70551 6.23269 23099 ft 396 kts 66°
2026-05-08 19:53 49.71673 6.27162 23098 ft 396 kts 66°
2026-05-08 19:53 49.72789 6.31043 23101 ft 396 kts 66°
2026-05-08 19:54 49.73909 6.34942 23103 ft 396 kts 66°
2026-05-08 19:54 49.75010 6.38784 23102 ft 397 kts 66°
2026-05-08 19:54 49.76128 6.42687 23102 ft 397 kts 66°
2026-05-08 19:54 49.77243 6.46587 23098 ft 397 kts 66°
2026-05-08 19:55 49.78357 6.50494 23087 ft 397 kts 66°
2026-05-08 19:55 49.79468 6.54390 22851 ft 394 kts 66°
2026-05-08 19:55 49.80569 6.58263 22336 ft 391 kts 66°
2026-05-08 19:55 49.81659 6.62101 21686 ft 388 kts 66°
2026-05-08 19:56 49.82738 6.65906 21013 ft 384 kts 66°
2026-05-08 19:56 49.83806 6.69678 20344 ft 381 kts 66°
2026-05-08 19:56 49.84864 6.73423 19702 ft 377 kts 66°
2026-05-08 19:56 49.85897 6.77083 19070 ft 374 kts 66°
2026-05-08 19:57 49.86933 6.80763 18451 ft 371 kts 66°
2026-05-08 19:57 49.87960 6.84416 17786 ft 368 kts 66°
2026-05-08 19:57 49.88973 6.88020 17278 ft 361 kts 66°
2026-05-08 19:57 49.89975 6.91598 17122 ft 364 kts 66°
2026-05-08 19:58 49.90984 6.95207 17088 ft 364 kts 66°
2026-05-08 19:58 49.91991 6.98809 17135 ft 364 kts 66°
2026-05-08 19:58 49.92998 7.02417 17119 ft 365 kts 66°
2026-05-08 19:58 49.94005 7.06030 17118 ft 365 kts 66°
2026-05-08 19:59 49.95009 7.09637 17137 ft 365 kts 67°
2026-05-08 19:59 49.96015 7.13255 17027 ft 364 kts 67°
2026-05-08 19:59 49.97007 7.16831 16897 ft 356 kts 67°
2026-05-08 19:59 49.97954 7.20248 16774 ft 342 kts 67°
2026-05-08 20:00 49.98872 7.23566 16627 ft 328 kts 67°
2026-05-08 20:00 49.99761 7.26784 16277 ft 321 kts 67°
2026-05-08 20:00 50.00636 7.29959 16016 ft 321 kts 67°
2026-05-08 20:00 50.01516 7.33156 15757 ft 322 kts 67°
2026-05-08 20:01 50.02390 7.36335 15512 ft 319 kts 67°
2026-05-08 20:01 50.03253 7.39476 15369 ft 309 kts 67°
2026-05-08 20:01 50.04077 7.42479 15264 ft 296 kts 67°
2026-05-08 20:01 50.04868 7.45364 15149 ft 283 kts 67°
2026-05-08 20:02 50.05619 7.48110 14799 ft 277 kts 68°
2026-05-08 20:02 50.06382 7.50905 14290 ft 276 kts 68°
2026-05-08 20:02 50.07119 7.53604 13806 ft 274 kts 68°
2026-05-08 20:02 50.07863 7.56335 13268 ft 273 kts 68°
2026-05-08 20:03 50.08601 7.59045 12751 ft 271 kts 68°
2026-05-08 20:03 50.09333 7.61738 12241 ft 269 kts 68°
2026-05-08 20:03 50.10063 7.64420 11725 ft 268 kts 68°
2026-05-08 20:03 50.10584 7.67194 11225 ft 266 kts 82°
2026-05-08 20:04 50.10658 7.70049 10730 ft 263 kts 96°
2026-05-08 20:04 50.10296 7.72829 10258 ft 261 kts 109°
2026-05-08 20:04 50.09744 7.75518 9774 ft 260 kts 109°
2026-05-08 20:04 50.09217 7.78188 9312 ft 257 kts 108°
2026-05-08 20:05 50.08708 7.80805 8846 ft 255 kts 108°
2026-05-08 20:05 50.08191 7.83467 8379 ft 252 kts 107°
2026-05-08 20:05 50.08001 7.86123 7918 ft 251 kts 84°
2026-05-08 20:05 50.08465 7.88719 7482 ft 249 kts 68°
2026-05-08 20:06 50.09094 7.91204 7200 ft 244 kts 68°
2026-05-08 20:06 50.09718 7.93700 7122 ft 248 kts 69°
2026-05-08 20:06 50.10336 7.96202 7116 ft 247 kts 69°
2026-05-08 20:06 50.10951 7.98709 7102 ft 248 kts 69°
2026-05-08 20:07 50.11540 8.01227 7101 ft 247 kts 76°
2026-05-08 20:07 50.11622 8.03174 7112 ft 247 kts 98°
2026-05-08 20:07 50.11047 8.05476 7102 ft 246 kts 127°
2026-05-08 20:07 50.09746 8.07144 7096 ft 244 kts 158°
2026-05-08 20:08 50.08121 8.07547 7125 ft 241 kts 188°
2026-05-08 20:08 50.06525 8.06794 7127 ft 240 kts 206°
2026-05-08 20:08 50.05072 8.05512 7110 ft 240 kts 213°
2026-05-08 20:08 50.03693 8.04064 7115 ft 239 kts 216°
2026-05-08 20:09 50.02336 8.02596 6951 ft 236 kts 216°
2026-05-08 20:09 50.01057 8.01003 6546 ft 236 kts 229°
2026-05-08 20:09 50.00217 7.98844 6153 ft 233 kts 250°
2026-05-08 20:09 49.99669 7.96455 6027 ft 237 kts 250°
2026-05-08 20:10 49.99093 7.94057 6009 ft 237 kts 249°
2026-05-08 20:10 49.98506 7.91666 6010 ft 237 kts 249°
2026-05-08 20:10 49.97914 7.89274 6011 ft 237 kts 249°
2026-05-08 20:10 49.97324 7.86886 6011 ft 237 kts 249°
2026-05-08 20:11 49.96738 7.84489 6012 ft 237 kts 249°
2026-05-08 20:11 49.96162 7.82126 6012 ft 237 kts 249°
2026-05-08 20:11 49.95576 7.79727 6010 ft 238 kts 249°
2026-05-08 20:11 49.94718 7.77563 6009 ft 238 kts 223°
2026-05-08 20:12 49.93282 7.76354 6017 ft 238 kts 195°
2026-05-08 20:12 49.91661 7.75755 6011 ft 239 kts 191°
2026-05-08 20:12 49.90022 7.75847 6013 ft 239 kts 162°
2026-05-08 20:12 49.88639 7.77234 6008 ft 240 kts 130°
2026-05-08 20:13 49.87914 7.79531 6007 ft 240 kts 99°
2026-05-08 20:13 49.88050 7.82080 6011 ft 240 kts 72°
2026-05-08 20:13 49.88631 7.84514 6007 ft 241 kts 68°
2026-05-08 20:13 49.89234 7.86896 6006 ft 241 kts 69°
2026-05-08 20:14 49.89808 7.89337 6008 ft 241 kts 70°
2026-05-08 20:14 49.90337 7.91775 5835 ft 237 kts 71°
2026-05-08 20:14 49.90808 7.94222 5468 ft 236 kts 77°
2026-05-08 20:14 49.91150 7.96692 5121 ft 231 kts 76°
2026-05-08 20:15 49.91581 7.99018 5017 ft 217 kts 72°
2026-05-08 20:15 49.92065 8.01177 5014 ft 214 kts 70°
2026-05-08 20:15 49.92576 8.03320 4980 ft 208 kts 69°
2026-05-08 20:15 49.93077 8.05399 4565 ft 205 kts 69°
2026-05-08 20:16 49.93574 8.07470 4143 ft 205 kts 70°
2026-05-08 20:16 49.94074 8.09549 4024 ft 206 kts 70°
2026-05-08 20:16 49.94568 8.11608 4015 ft 206 kts 70°
2026-05-08 20:16 49.95069 8.13691 4013 ft 206 kts 70°
2026-05-08 20:17 49.95571 8.15779 4014 ft 206 kts 70°
2026-05-08 20:17 49.96046 8.17756 4009 ft 182 kts 70°
2026-05-08 20:17 49.96474 8.19545 4015 ft 177 kts 70°
2026-05-08 20:17 49.96901 8.21325 4013 ft 175 kts 70°
2026-05-08 20:18 49.97327 8.23097 4014 ft 175 kts 70°
2026-05-08 20:18 49.97752 8.24868 3896 ft 175 kts 70°
2026-05-08 20:18 49.98175 8.26633 3656 ft 173 kts 70°
2026-05-08 20:18 49.98587 8.28346 3429 ft 166 kts 70°
2026-05-08 20:19 49.98998 8.30060 3182 ft 169 kts 70°
2026-05-08 20:19 49.99402 8.31747 2934 ft 168 kts 70°
2026-05-08 20:19 49.99811 8.33449 2693 ft 167 kts 70°
2026-05-08 20:19 50.00217 8.35143 2449 ft 167 kts 70°
2026-05-08 20:20 50.00621 8.36829 2202 ft 165 kts 70°
2026-05-08 20:20 50.01022 8.38502 1967 ft 163 kts 70°
2026-05-08 20:20 50.01383 8.40010 1744 ft 135 kts 70°
2026-05-08 20:20 50.01688 8.41284 1554 ft 118 kts 69°
2026-05-08 20:21 50.01977 8.42493 1385 ft 120 kts 69°
2026-05-08 20:21 50.02264 8.43691 1212 ft 120 kts 69°
2026-05-08 20:21 50.02554 8.44906 1009 ft 119 kts 68°
2026-05-08 20:21 50.02832 8.46115 866 ft 119 kts 68°
2026-05-08 20:22 50.03122 8.47309 719 ft 118 kts 66°
2026-05-08 20:22 50.03411 8.48476 553 ft 117 kts 66°
2026-05-08 20:22 50.03692 8.49660 410 ft 116 kts 67°
2026-05-08 20:22 50.03970 8.50819 355 ft 104 kts 69°
2026-05-08 20:23 50.04103 8.51412 348 ft 38 kts 82°
2026-05-08 20:23 50.04095 8.51775 354 ft 14 kts 103°
2026-05-08 20:23 50.04075 8.51965 348 ft 21 kts 100°
2026-05-08 20:23 50.04087 8.52203 353 ft 23 kts 69°
2026-05-08 20:24 50.04144 8.52435 353 ft 24 kts 68°
2026-05-08 20:24 50.04203 8.52693 353 ft 26 kts 69°
2026-05-08 20:24 50.04267 8.52951 347 ft 26 kts 69°
2026-05-08 20:24 50.04325 8.53190 353 ft 24 kts 69°
2026-05-08 20:25 50.04386 8.53440 352 ft 22 kts 71°
2026-05-08 20:25 50.04408 8.53702 348 ft 27 kts 83°
2026-05-08 20:25 50.04427 8.54009 345 ft 30 kts 84°
2026-05-08 20:25 50.04443 8.54236 355 ft 17 kts 84°
2026-05-08 20:26 50.04452 8.54399 348 ft 9 kts 85°
2026-05-08 20:26 50.04443 8.54525 353 ft 15 kts 103°
2026-05-08 20:26 50.04383 8.54687 353 ft 18 kts 132°
2026-05-08 20:26 50.04334 8.54750 349 ft 2 kts 150°
2026-05-08 20:27 50.04333 8.54750 349 ft 0 kts 153°
2026-05-08 20:28 50.04329 8.54754 329 ft 3 kts 152°
2026-05-08 20:28 50.04269 8.54797 347 ft 15 kts 159°
2026-05-08 20:28 50.04158 8.54860 354 ft 20 kts 158°
2026-05-08 20:29 50.04058 8.54916 350 ft 14 kts 161°
2026-05-08 20:29 50.04024 8.55042 345 ft 16 kts 75°
2026-05-08 20:29 50.04069 8.55228 351 ft 21 kts 69°
2026-05-08 20:29 50.04123 8.55458 347 ft 25 kts 69°
2026-05-08 20:30 50.04164 8.55624 348 ft 15 kts 70°
2026-05-08 20:30 50.04205 8.55795 350 ft 20 kts 69°
2026-05-08 20:30 50.04249 8.55977 351 ft 15 kts 68°
2026-05-08 20:30 50.04322 8.56065 352 ft 15 kts 339°
2026-05-08 20:31 50.04414 8.56030 345 ft 10 kts 11°
2026-05-08 20:31 50.04453 8.56119 348 ft 11 kts 70°
2026-05-08 20:31 50.04464 8.56168 351 ft 6 kts 69°
2026-05-08 20:31 50.04474 8.56235 350 ft 7 kts 102°
2026-05-08 20:32 50.04430 8.56271 351 ft 4 kts 163°
2026-05-08 20:32 50.04426 8.56273 353 ft 0 kts 162°